[[{"header":{"parameterUnit":"m.s-1","parameterCategory":1,"la1":30.2991,"la2":30.254,"lo1":-89.0895,"lo2":-89.0444,"dy":0.0017,"dx":0.0017,"nx":28,"ny":28,"refTime":"2025-12-15T09:00:00:Z","depth":0,"parameterNumber":2,"parameterNumberName":"U-component_of_WINDS"},"data":[0,0,0,0,0,0,0,0,0,0,0,0,0,0,0,0,0,0,0,0,0,0,0,0,0,0,0,0,0,0,0,0,0,0,0,0,0,0,0,0,0,0,0,0,0,0,0,0,0,0,0,0,0,0,0,0,0,0,-2.0652,-2.0653,0,-2.0726,-2.0727,-2.0728,-2.0676,-2.0674,-2.0671,-2.0669,-2.0747,-2.0751,-2.0756,0,0,0,0,0,0,0,0,0,0,0,0,0,-2.0466,-2.0469,-2.0652,-2.0653,-2.0654,-2.0726,-2.0727,-2.0728,-2.0676,-2.0674,-2.0671,-2.0668,-2.0746,-2.0751,-2.0756,0,0,0,0,0,0,0,0,0,0,0,0,0,-2.0544,-2.047,-2.0651,-2.0636,-2.0636,-2.0726,-2.0727,-2.0728,-2.0677,-2.0674,-2.067,-2.0667,-2.0744,-2.075,-2.0757,-2.0866,0,0,-2.0776,-2.0779,0,0,0,0,0,0,0,0,-2.054,-2.0551,-2.0638,-2.0638,-2.0637,-2.0688,-2.069,-2.0775,-2.0678,-2.0662,-2.0669,-2.0665,-2.0731,-2.0738,-2.0759,-2.087,-2.0873,-2.0777,-2.0781,-2.0783,-2.0785,0,0,0,0,0,0,0,-2.0534,-2.0547,-2.0681,-2.0639,-2.0639,-2.0626,-2.0633,-2.0706,-2.0715,-2.0663,-2.0659,-2.0668,-2.073,-2.0753,-2.0761,-2.0874,-2.0776,-2.0782,-2.0786,-2.0789,-2.1077,-2.1081,0,0,0,0,0,0,-2.053,-2.0543,-2.0679,-2.0683,-2.0579,-2.0632,-2.0641,-2.0675,-2.0714,-2.0716,-2.0671,-2.0666,-2.0744,-2.0754,-2.0763,-2.0894,-2.0783,-2.0789,-2.0793,-2.1073,-2.1078,-2.1082,0,0,0,0,0,0,-2.0526,-2.0542,-2.0676,-2.0612,-2.0628,-2.0639,-2.0679,-2.0679,-2.0702,-2.072,-2.0722,-2.0694,-2.0742,-2.0754,-2.0841,-2.0896,-2.0792,-2.0798,-2.1069,-2.1075,-2.108,-2.1157,0,0,0,0,0,0,-2.0521,-2.0541,-2.0583,-2.0614,-2.0632,-2.0752,-2.0682,-2.0683,-2.0713,-2.0707,-2.0742,-2.0745,-2.074,-2.0831,-2.0847,-2.0903,-2.0803,-2.1064,-2.1071,-2.1078,-2.1149,-2.1165,-2.1177,0,0,0,0,0,-2.0514,-2.0602,-2.0586,-2.0602,-2.0684,-2.0755,-2.0766,-2.0758,-2.0718,-2.076,-2.0771,-2.0743,-2.0887,-2.0841,-2.0858,-2.0917,-2.106,-2.1069,-2.1078,-2.1143,-2.1162,-2.1177,0,0,0,0,0,0,-2.0579,-2.0606,-2.0588,-2.0688,-2.072,-2.0746,-2.0799,-2.0778,-2.0822,-2.0815,-2.0804,-2.0812,-2.0902,-2.0918,-2.0865,-2.1024,-2.0967,-2.098,-2.1011,-2.1029,-2.1043,-2.1038,-2.0808,0,0,0,0,0,-2.0605,-2.066,-2.068,-2.0767,-2.0783,-2.0789,-2.0819,-2.0811,-2.0843,-2.0857,-2.0874,-2.0907,-2.096,-2.0995,-2.1044,-2.115,-2.1158,-2.1199,-2.1213,-2.1225,-2.1236,-2.1294,-2.1313,-2.111,-2.111,-2.111,0,0,-2.0659,-2.068,-2.0716,-2.078,-2.0804,-2.0862,-2.0801,-2.0864,-2.0907,-2.0867,-2.0949,-2.0963,-2.0999,-2.1096,-2.1139,-2.1111,-2.1293,-2.1236,-2.1245,-2.125,-2.1305,-2.1324,-2.1341,-2.1116,-2.1115,-2.1114,0,0,-2.0787,-2.0809,-2.0883,-2.0908,-2.0943,-2.0946,-2.0964,-2.0994,-2.1001,-2.1083,-2.1054,-2.1105,-2.1195,-2.1222,-2.1248,-2.1384,-2.1361,-2.1401,-2.1475,-2.1531,-2.1547,-2.1561,-2.161,-2.1628,-2.1412,-2.1412,-2.1412,0,-2.0851,-2.0936,-2.0924,-2.099,-2.1019,-2.0984,-2.1059,-2.1084,-2.1134,-2.1155,-2.1123,-2.1235,-2.1257,-2.136,-2.1393,-2.1414,-2.1435,-2.1398,-2.1545,-2.1559,-2.1572,-2.1619,-2.1638,-2.1417,-2.1416,-2.1415,-2.1415,0,-2.1012,-2.1072,-2.1128,-2.1177,-2.1212,-2.1282,-2.1281,-2.1318,-2.1306,-2.1312,-2.1396,-2.142,-2.1474,-2.1497,-2.1486,-2.1598,-2.1579,-2.1546,-2.1489,-2.1596,-2.1641,-2.1659,-2.1423,-2.1422,-2.142,-2.1419,0,0,-2.1186,-2.1226,-2.1247,-2.1269,-2.1305,-2.1351,-2.1419,-2.147,-2.1503,-2.1538,-2.1596,-2.1672,-2.1641,-2.167,-2.1661,-2.171,-2.1818,-2.1671,-2.1672,-2.1699,-2.1943,-2.1969,-2.199,-2.1801,-2.1804,-2.1807,-2.1941,0,-2.1317,-2.1437,-2.1427,-2.154,-2.1595,-2.1561,-2.162,-2.1649,-2.1656,-2.1703,-2.1711,-2.1766,-2.172,-2.1738,-2.1784,-2.1795,-2.1867,-2.1785,-2.1855,-2.1858,-2.1849,-2.2013,-2.2041,-2.2166,-2.1958,-2.1961,-2.1963,0,-2.1487,-2.1528,-2.1646,-2.1673,-2.1696,-2.175,-2.1796,-2.1841,-2.1873,-2.1874,-2.1906,-2.1888,-2.1957,-2.1897,-2.1991,-2.1936,-2.1963,-2.1973,-2.1977,-2.1985,-2.1918,-2.2027,-2.2206,-2.2226,-2.199,-2.1987,-2.1986,0,-2.1604,-2.1688,-2.1769,-2.1788,-2.1822,-2.186,-2.1876,-2.1904,-2.1935,-2.1975,-2.1995,-2.2043,-2.207,-2.2107,-2.2103,-2.2059,-2.2199,-2.2139,-2.2203,-2.2204,-2.2236,-2.2235,-2.2424,-2.2251,-2.2251,-2.2251,-2.225,0,-2.1753,-2.1827,-2.1822,-2.1872,-2.1954,-2.1942,-2.2023,-2.2034,-2.2059,-2.2111,-2.2083,-2.2133,-2.2123,-2.2172,-2.2169,-2.2249,-2.226,-2.2264,-2.2263,-2.2268,-2.2267,-2.2287,-2.2279,-2.2256,-2.2255,-2.2254,-2.2253,0,-2.1898,-2.1897,-2.1984,-2.2008,-2.2015,-2.2075,-2.2095,-2.2143,-2.2146,-2.2212,-2.2227,-2.2233,-2.2289,-2.2288,-2.2352,-2.235,-2.2448,-2.2435,-2.2437,-2.2435,-2.2501,-2.2495,-2.2711,-2.2739,-2.2547,-2.2548,-2.255,0,-2.1994,-2.205,-2.2079,-2.2112,-2.213,-2.2183,-2.2214,-2.2204,-2.2237,-2.2277,-2.232,-2.2373,-2.2416,-2.2507,-2.2517,-2.2566,-2.2556,-2.2628,-2.2563,-2.2566,-2.2558,-2.2556,-2.2562,-2.2641,-2.2643,-2.2645,-2.2647,0,-2.2165,-2.2161,-2.2208,-2.2254,-2.2292,-2.2328,-2.2361,-2.2389,-2.2382,-2.2421,-2.2478,-2.2511,-2.2576,-2.263,-2.2676,-2.2692,-2.2669,-2.2666,-2.2684,-2.2691,-2.269,-2.2692,-2.2474,-2.2662,-2.2661,-2.2659,-2.2659,-2.2658,-2.2289,-2.2337,-2.2365,-2.2418,-2.2441,-2.2472,-2.2518,-2.2526,-2.2573,-2.2625,-2.2616,-2.268,-2.2708,-2.2768,-2.2788,-2.2838,-2.2813,-2.2838,-2.2845,-2.2852,-2.286,-2.268,-2.2846,-2.2846,-2.2845,-2.2845,-2.2845,0,-2.246,-2.2476,-2.2524,-2.257,-2.2611,-2.2584,-2.2618,-2.2655,-2.2711,-2.274,-2.2781,-2.2847,-2.2898,-2.2911,-2.2961,-2.2998,-2.2989,-2.3012,-2.301,-2.3014,-2.2879,-2.2859,-2.3018,-2.3018,-2.3018,-2.3018,-2.3018,-2.3018,-2.2554,-2.2634,-2.2633,-2.2724,-2.2739,-2.2801,-2.2824,-2.2852,-2.2875,-2.2948,-2.2991,-2.2999,-2.3021,-2.3072,-2.3117,-2.312,-2.314,-2.3168,-2.3166,-2.3041,-2.3023,-2.3007,-2.2988,-2.3172,-2.3172,-2.3297,-2.3298,-2.3299]},{"header":{"parameterUnit":"m.s-1","parameterCategory":1,"la1":30.2991,"la2":30.254,"lo1":-89.0895,"lo2":-89.0444,"dy":0.0017,"dx":0.0017,"nx":28,"ny":28,"refTime":"2025-12-15T09:00:00:Z","depth":0,"parameterNumber":3,"parameterNumberName":"V-component_of_WINDS"},"data":[0,0,0,0,0,0,0,0,0,0,0,0,0,0,0,0,0,0,0,0,0,0,0,0,0,0,0,0,0,0,0,0,0,0,0,0,0,0,0,0,0,0,0,0,0,0,0,0,0,0,0,0,0,0,0,0,0,0,-9.4308,-9.431,0,-9.4467,-9.4469,-9.4471,-9.4357,-9.4352,-9.4347,-9.4342,-9.4498,-9.4507,-9.4516,0,0,0,0,0,0,0,0,0,0,0,0,0,-9.39,-9.3908,-9.4308,-9.431,-9.4312,-9.4467,-9.4469,-9.4471,-9.4358,-9.4352,-9.4346,-9.434,-9.4495,-9.4506,-9.4516,0,0,0,0,0,0,0,0,0,0,0,0,0,-9.407,-9.391,-9.4308,-9.4274,-9.4273,-9.4466,-9.4469,-9.4472,-9.4359,-9.4352,-9.4344,-9.4337,-9.4492,-9.4505,-9.4518,-9.4751,0,0,-9.4558,-9.4564,0,0,0,0,0,0,0,0,-9.406,-9.4085,-9.4277,-9.4277,-9.4276,-9.4385,-9.4382,-9.4565,-9.4361,-9.4326,-9.4342,-9.4333,-9.4466,-9.4481,-9.4527,-9.4758,-9.4765,-9.456,-9.4568,-9.4573,-9.4577,0,0,0,0,0,0,0,-9.4048,-9.4077,-9.4371,-9.428,-9.4279,-9.4249,-9.4265,-9.4416,-9.4436,-9.4329,-9.4321,-9.4342,-9.4464,-9.4515,-9.453,-9.4767,-9.4559,-9.4571,-9.4579,-9.4584,-9.5196,-9.5204,0,0,0,0,0,0,-9.4041,-9.4068,-9.4366,-9.4375,-9.4147,-9.4263,-9.428,-9.4357,-9.4434,-9.4439,-9.4348,-9.4336,-9.4496,-9.4515,-9.4535,-9.4813,-9.4573,-9.4586,-9.4593,-9.5188,-9.5198,-9.5207,0,0,0,0,0,0,-9.4032,-9.4068,-9.4359,-9.422,-9.4255,-9.4278,-9.4365,-9.4364,-9.4415,-9.4449,-9.4451,-9.4396,-9.4491,-9.4516,-9.4698,-9.4817,-9.4592,-9.4604,-9.5178,-9.5191,-9.5203,-9.5371,0,0,0,0,0,0,-9.4021,-9.4066,-9.4157,-9.4223,-9.4263,-9.4523,-9.4372,-9.4373,-9.4439,-9.4424,-9.4495,-9.4499,-9.4487,-9.4679,-9.4712,-9.4831,-9.4614,-9.5168,-9.5184,-9.5199,-9.5355,-9.5388,-9.5416,0,0,0,0,0,-9.4007,-9.4196,-9.4162,-9.4198,-9.4377,-9.453,-9.4552,-9.4536,-9.4449,-9.4539,-9.4561,-9.4497,-9.4799,-9.4699,-9.4734,-9.486,-9.516,-9.5179,-9.5197,-9.5341,-9.5381,-9.5415,0,0,0,0,0,0,-9.4141,-9.4204,-9.4167,-9.4384,-9.4453,-9.451,-9.4624,-9.4578,-9.4671,-9.4654,-9.4627,-9.4644,-9.4835,-9.4865,-9.4753,-9.5088,-9.4965,-9.4992,-9.5062,-9.5101,-9.513,-9.5119,-9.4625,0,0,0,0,0,-9.4196,-9.4318,-9.4365,-9.4552,-9.4589,-9.4601,-9.4667,-9.4648,-9.4717,-9.4745,-9.478,-9.4848,-9.4957,-9.503,-9.5133,-9.5358,-9.5371,-9.5462,-9.5492,-9.5517,-9.554,-9.5661,-9.5701,-9.5268,-9.5268,-9.5268,0,0,-9.431,-9.436,-9.4438,-9.458,-9.4631,-9.4756,-9.4626,-9.4763,-9.4854,-9.4765,-9.494,-9.4968,-9.5041,-9.5246,-9.5338,-9.5277,-9.5663,-9.554,-9.556,-9.557,-9.5684,-9.5725,-9.5762,-9.5281,-9.5279,-9.5277,0,0,-9.4583,-9.4633,-9.4794,-9.4849,-9.4929,-9.4935,-9.4974,-9.504,-9.5056,-9.5231,-9.5167,-9.5273,-9.5463,-9.5519,-9.5572,-9.5865,-9.581,-9.5899,-9.6057,-9.6175,-9.621,-9.624,-9.6344,-9.6382,-9.5922,-9.5922,-9.5923,0,-9.4715,-9.4902,-9.4882,-9.5025,-9.5089,-9.5016,-9.5178,-9.5231,-9.5339,-9.5384,-9.5315,-9.5552,-9.5596,-9.5813,-9.5884,-9.5929,-9.5972,-9.5891,-9.6207,-9.6237,-9.6264,-9.6364,-9.6403,-9.5933,-9.5932,-9.593,-9.5929,0,-9.506,-9.5191,-9.5311,-9.5421,-9.5497,-9.5649,-9.565,-9.573,-9.5705,-9.5718,-9.5897,-9.5947,-9.6059,-9.6109,-9.6084,-9.6322,-9.6282,-9.6211,-9.6086,-9.6317,-9.6409,-9.6447,-9.5948,-9.5944,-9.5941,-9.5938,0,0,-9.5422,-9.5519,-9.5564,-9.5613,-9.5695,-9.5795,-9.5942,-9.6054,-9.6123,-9.6199,-9.6322,-9.6484,-9.6418,-9.6479,-9.6459,-9.6563,-9.6792,-9.6478,-9.6479,-9.6535,-9.7057,-9.7111,-9.7155,-9.6755,-9.6763,-9.6768,-9.705,0,-9.5699,-9.5959,-9.5946,-9.6188,-9.6308,-9.624,-9.6368,-9.6432,-9.6448,-9.655,-9.6566,-9.6682,-9.6587,-9.6623,-9.6722,-9.6743,-9.6896,-9.6722,-9.6867,-9.6873,-9.6852,-9.7204,-9.7261,-9.7525,-9.7087,-9.7093,-9.7097,0,-9.6058,-9.615,-9.6406,-9.6471,-9.652,-9.6636,-9.6737,-9.6836,-9.6906,-9.691,-9.6978,-9.6942,-9.7088,-9.696,-9.7161,-9.7043,-9.71,-9.712,-9.7129,-9.7143,-9.7,-9.7227,-9.7609,-9.7649,-9.7154,-9.715,-9.7146,0,-9.6297,-9.6484,-9.6662,-9.6705,-9.6785,-9.6868,-9.6905,-9.6967,-9.7035,-9.7123,-9.7166,-9.7269,-9.7325,-9.7404,-9.7395,-9.7303,-9.7599,-9.747,-9.7606,-9.7606,-9.7672,-9.7668,-9.807,-9.7709,-9.7708,-9.7707,-9.7707,0,-9.6609,-9.6768,-9.677,-9.688,-9.7055,-9.7036,-9.721,-9.7237,-9.7293,-9.7405,-9.7351,-9.7456,-9.7438,-9.7542,-9.7536,-9.7703,-9.7728,-9.7735,-9.7731,-9.774,-9.774,-9.7778,-9.776,-9.7718,-9.7716,-9.7714,-9.7712,0,-9.6906,-9.6914,-9.7103,-9.7164,-9.7183,-9.7309,-9.736,-9.7462,-9.7474,-9.7615,-9.7647,-9.7665,-9.7785,-9.7784,-9.7921,-9.7916,-9.8121,-9.8096,-9.8099,-9.8094,-9.823,-9.8217,-9.8671,-9.8729,-9.833,-9.8334,-9.8337,0,-9.7105,-9.7226,-9.73,-9.7372,-9.7415,-9.7532,-9.7601,-9.7587,-9.7661,-9.775,-9.7841,-9.7957,-9.8049,-9.8244,-9.8267,-9.8371,-9.8348,-9.85,-9.8363,-9.8368,-9.8351,-9.8344,-9.8356,-9.8527,-9.8531,-9.8535,-9.8538,0,-9.7457,-9.7455,-9.7559,-9.7665,-9.775,-9.7832,-9.7908,-9.7969,-9.7962,-9.8048,-9.8172,-9.8244,-9.8384,-9.8499,-9.86,-9.8634,-9.8585,-9.8581,-9.8617,-9.8628,-9.8625,-9.8629,-9.8173,-9.857,-9.8567,-9.8565,-9.8563,-9.8562,-9.7711,-9.7815,-9.7885,-9.8002,-9.8058,-9.813,-9.8229,-9.8254,-9.8358,-9.8473,-9.8457,-9.8595,-9.8659,-9.8789,-9.8833,-9.8939,-9.8885,-9.8939,-9.8952,-9.8966,-9.8981,-9.8608,-9.8957,-9.8956,-9.8955,-9.8954,-9.8954,0,-9.806,-9.8102,-9.821,-9.8319,-9.8411,-9.8359,-9.8439,-9.8519,-9.8642,-9.8708,-9.88,-9.8942,-9.9053,-9.9086,-9.9193,-9.9271,-9.9252,-9.93,-9.9294,-9.9303,-9.9023,-9.8981,-9.9314,-9.9314,-9.9314,-9.9314,-9.9314,-9.9314,-9.8253,-9.8428,-9.8434,-9.8635,-9.8674,-9.8811,-9.8862,-9.8927,-9.898,-9.9141,-9.9235,-9.9256,-9.9308,-9.9418,-9.9517,-9.9523,-9.9565,-9.9623,-9.9621,-9.9359,-9.9323,-9.9288,-9.9248,-9.9632,-9.9633,-9.9891,-9.9894,-9.9896]}]]